DW7076 Floda SE current weather conditions

sailwx.info

Wind from 059 at 2 knots gusting 6

Air temperature 9.4° C
Dewpoint 8.2° C

Last reported at 2014-Oct-01 07:46 UTC.
Time now 2014-Oct-01 08:19 UTC

Location: N 57°49' E 012°21'.
View on Google Maps.

See reports from other nearby stations

  
Tides and Currents Weather Stations Pressure Air Temp Water Temp Dewpoint Dewpoint Depression Visibility Wind Speed Wind Dir Waves Ship Positions
date/time (UTC)wind fromknots sea level pressurealtimeterstation pressurevisibilityair tempwater tempwave heightnotes
2014-Oct-01 07:46 059 2 gusting 6 9.4
2014-Oct-01 07:36 134 1 gusting 6 8.9
2014-Oct-01 07:26 126 1 gusting 5 8.9
2014-Oct-01 07:16 094 0 gusting 5 8.9
2014-Oct-01 07:06 117 1 gusting 5 8.3
2014-Oct-01 06:56 115 1 gusting 8 8.3
2014-Oct-01 06:46 005 0 gusting 2 7.8
2014-Oct-01 06:36 151 7.8
2014-Oct-01 06:26 149 1 gusting 7 7.8
2014-Oct-01 06:16 053 0 gusting 5 7.8
2014-Oct-01 06:06 119 0 gusting 2 7.2
2014-Oct-01 05:56 132 1 gusting 2 7.2
2014-Oct-01 05:46 128 0 gusting 2 7.2
2014-Oct-01 05:36 164 1 gusting 6 7.2
2014-Oct-01 05:26 161 6.7
2014-Oct-01 05:16 107 0 gusting 4 6.7
2014-Oct-01 05:06 188 6.7
2014-Oct-01 04:56 181 6.7
2014-Oct-01 04:46 150 6.7
2014-Oct-01 04:36 153 6.1
2014-Oct-01 04:26 154 6.1
2014-Oct-01 04:16 153 6.1
2014-Oct-01 04:06 165 6.1
2014-Oct-01 03:56 104 0 gusting 2 6.1
2014-Oct-01 03:46 051 6.1
2014-Oct-01 03:36 131 6.1
2014-Oct-01 03:26 150 6.1
2014-Oct-01 03:16 146 0 gusting 2 6.1
2014-Oct-01 03:06 144 6.1
2014-Oct-01 02:56 144 6.1
2014-Oct-01 02:46 190 6.7
2014-Oct-01 02:36 190 0 gusting 1 6.7
2014-Oct-01 02:26 190 6.7
2014-Oct-01 02:16 087 6.7
2014-Oct-01 02:06 084 6.7
2014-Oct-01 01:56 093 0 gusting 4 6.7
2014-Oct-01 01:46 100 0 gusting 2 6.1
2014-Oct-01 01:36 181 6.1
2014-Oct-01 01:26 136 0 gusting 2 6.1
2014-Oct-01 01:16 156 6.1
2014-Oct-01 01:06 169 0 gusting 2 6.1
2014-Oct-01 00:56 113 5.6
2014-Oct-01 00:46 117 5.6
2014-Oct-01 00:36 117 5.6
2014-Oct-01 00:26 117 5.6
2014-Oct-01 00:16 117 5.6
2014-Oct-01 00:06 117 5.6
2014-Sep-30 23:56 117 5.6
2014-Sep-30 23:46 117 5.6
2014-Sep-30 23:36 117 5.6
2014-Sep-30 23:26 117 5.6
2014-Sep-30 23:16 117 5.6
2014-Sep-30 23:06 117 6.1
2014-Sep-30 22:56 117 6.1
2014-Sep-30 22:46 117 5.6
2014-Sep-30 22:36 117 6.1
2014-Sep-30 22:26 117 6.1
2014-Sep-30 22:16 117 6.1
2014-Sep-30 22:06 117 6.1
2014-Sep-30 21:56 117 6.1
2014-Sep-30 21:46 117 6.1
2014-Sep-30 21:36 117 6.1
2014-Sep-30 21:26 117 6.1
2014-Sep-30 21:16 117 6.7
2014-Sep-30 21:06 117 6.7
2014-Sep-30 20:56 117 6.7
2014-Sep-30 20:46 117 6.7
2014-Sep-30 20:36 117 7.2
2014-Sep-30 20:26 117 7.2
2014-Sep-30 20:16 117 7.2
2014-Sep-30 20:06 117 7.2
2014-Sep-30 19:56 117 7.8
2014-Sep-30 19:46 117 7.8
2014-Sep-30 19:36 117 7.8
2014-Sep-30 19:26 117 7.8
2014-Sep-30 19:16 117 8.3
2014-Sep-30 19:06 117 8.3
2014-Sep-30 18:56 117 8.3
2014-Sep-30 18:46 117 8.3
2014-Sep-30 18:36 117 8.9
2014-Sep-30 18:26 117 8.9
2014-Sep-30 18:16 117 8.9
2014-Sep-30 18:06 117 9.4
2014-Sep-30 17:56 117 9.4
2014-Sep-30 17:46 117 9.4
2014-Sep-30 17:36 117 10.0
2014-Sep-30 17:26 117 10.6
2014-Sep-30 17:16 117 10.6
2014-Sep-30 17:06 117 11.1
2014-Sep-30 16:56 117 11.1
2014-Sep-30 16:46 117 11.7
2014-Sep-30 16:36 117 12.2
2014-Sep-30 16:26 117 12.2
2014-Sep-30 16:16 117 12.8
2014-Sep-30 16:06 117 13.3
2014-Sep-30 15:56 117 13.3
2014-Sep-30 15:46 117 13.9
2014-Sep-30 15:36 117 14.4
2014-Sep-30 15:26 117 15.0
2014-Sep-30 15:16 117 0 gusting 1 15.0
2014-Sep-30 15:06 142 15.6
2014-Sep-30 14:56 117 15.6
2014-Sep-30 14:46 124 0 gusting 2 16.1
2014-Sep-30 14:36 215 16.1
2014-Sep-30 14:26 074 0 gusting 2 17.2
2014-Sep-30 14:16 111 1 gusting 2 17.2
2014-Sep-30 14:06 150 0 gusting 2 16.7
2014-Sep-30 13:56 150 0 gusting 2 16.1
2014-Sep-30 13:46 115 0 gusting 5 16.7
2014-Sep-30 13:36 139 0 gusting 2 17.8
2014-Sep-30 13:26 138 1 gusting 2 17.8
2014-Sep-30 13:16 109 0 gusting 2 17.2
2014-Sep-30 13:06 114 0 gusting 2 17.2
2014-Sep-30 12:56 141 1 gusting 2 17.2
2014-Sep-30 12:46 098 17.2
2014-Sep-30 12:36 117 0 gusting 2 17.2
2014-Sep-30 12:26 090 1 gusting 5 17.2
2014-Sep-30 12:16 092 0 gusting 4 17.2
2014-Sep-30 12:06 146 0 gusting 2 16.7
2014-Sep-30 11:56 061 0 gusting 4 16.1
2014-Sep-30 11:46 119 0 gusting 2 16.7
2014-Sep-30 11:36 116 1 gusting 6 16.7
2014-Sep-30 11:26 118 1 gusting 2 16.1
2014-Sep-30 11:16 131 0 gusting 2 16.1
2014-Sep-30 11:06 103 0 gusting 2 15.6
2014-Sep-30 10:56 101 0 gusting 2 15.6
2014-Sep-30 10:46 117 0 gusting 2 15.6
2014-Sep-30 10:36 099 0 gusting 1 15.0
2014-Sep-30 10:26 089 14.4
2014-Sep-30 10:16 105 0 gusting 1 14.4
2014-Sep-30 10:06 105 0 gusting 2 13.9
2014-Sep-30 09:56 084 13.3
2014-Sep-30 09:46 084 12.8
2014-Sep-30 09:36 084 12.8
2014-Sep-30 09:26 084 12.2
2014-Sep-30 09:16 084 12.2
2014-Sep-30 09:06 084 11.7
2014-Sep-30 08:56 084 11.7
2014-Sep-30 08:46 084 11.7
2014-Sep-30 08:36 259 7.2
2014-Sep-30 08:26 259 7.2
2014-Sep-30 08:16 259 7.2
2014-Sep-30 08:06 259 7.2
2014-Sep-30 07:56 259 7.2
2014-Sep-30 07:46 259 7.2
2014-Sep-30 07:36 259 7.2
2014-Sep-30 07:26 259 6.7
2014-Sep-30 07:16 259 5.6
2014-Sep-30 07:06 259 5.0
2014-Sep-30 06:56 259 4.4
2014-Sep-30 06:46 259 4.4
2014-Sep-30 06:36 259 4.4
2014-Sep-30 06:26 259 3.9
2014-Sep-30 06:16 259 3.9
2014-Sep-30 06:06 259 3.9
2014-Sep-30 05:56 259 3.3
2014-Sep-30 05:46 259 3.3
2014-Sep-30 04:46 259 3.9
2014-Sep-30 04:36 259 3.9
2014-Sep-30 04:26 259 3.9
2014-Sep-30 04:16 259 4.4
2014-Sep-30 04:06 259 4.4
2014-Sep-30 03:56 259 4.4
2014-Sep-30 03:46 259 4.4
2014-Sep-30 03:36 259 5.0
2014-Sep-30 03:26 259 5.0
2014-Sep-30 03:16 259 5.0
2014-Sep-30 03:06 259 4.4
2014-Sep-30 02:56 259 4.4
2014-Sep-30 02:46 259 4.4
2014-Sep-30 02:36 259 4.4
2014-Sep-30 02:26 259 4.4
2014-Sep-30 02:16 259 4.4
2014-Sep-30 02:06 259 4.4
2014-Sep-30 01:56 259 4.4
2014-Sep-30 01:46 259 4.4
2014-Sep-30 01:36 259 4.4
2014-Sep-30 01:16 259 5.0
2014-Sep-30 01:06 259 0 gusting 0 5.0
2014-Sep-30 00:56 259 5.0
2014-Sep-30 00:46 259 5.0
2014-Sep-30 00:36 259 5.0
2014-Sep-30 00:26 259 5.0
2014-Sep-30 00:16 259 5.0
2014-Sep-30 00:06 259 5.0
2014-Sep-29 23:56 259 5.0
2014-Sep-29 23:46 259 5.6
2014-Sep-29 23:36 259 5.6
2014-Sep-29 23:26 259 5.6
2014-Sep-29 23:16 259 5.6
2014-Sep-29 23:06 259 5.6
2014-Sep-29 22:56 259 5.6
2014-Sep-29 22:46 259 6.1
2014-Sep-29 22:36 259 6.1
2014-Sep-29 22:26 259 6.1
2014-Sep-29 22:16 259 6.1
2014-Sep-29 22:06 259 6.1
2014-Sep-29 21:56 259 6.7
2014-Sep-29 21:46 259 6.7
2014-Sep-29 21:36 259 6.7
2014-Sep-29 21:26 259 6.7
2014-Sep-29 21:16 259 6.7
2014-Sep-29 21:06 259 7.2
2014-Sep-29 20:56 259 7.2
2014-Sep-29 20:46 259 7.2
2014-Sep-29 20:36 259 7.2
2014-Sep-29 20:26 259 7.8
2014-Sep-29 20:16 259 7.8
2014-Sep-29 20:06 259 7.8
2014-Sep-29 19:56 259 7.8
2014-Sep-29 19:46 259 7.8
2014-Sep-29 19:36 259 8.3
2014-Sep-29 19:26 259 8.3
2014-Sep-29 19:16 259 8.3
2014-Sep-29 19:06 259 8.9
2014-Sep-29 18:56 259 8.9
2014-Sep-29 18:36 259 9.4
2014-Sep-29 18:26 259 9.4
2014-Sep-29 18:16 259 9.4
2014-Sep-29 17:56 259 10.0
2014-Sep-29 17:46 259 0 gusting 1 10.0
2014-Sep-29 17:36 259 10.6
2014-Sep-29 17:26 259 10.6
2014-Sep-29 17:16 259 11.1
2014-Sep-29 17:06 259 11.7
2014-Sep-29 16:56 259 11.7
2014-Sep-29 16:46 259 12.2
2014-Sep-29 16:36 259 12.8
2014-Sep-29 16:26 259 13.3
2014-Sep-29 16:16 259 13.3
2014-Sep-29 15:46 328 14.4
2014-Sep-29 15:36 281 2 gusting 5 14.4
2014-Sep-29 15:26 266 15.0
2014-Sep-29 15:16 239 15.0
2014-Sep-29 15:06 307 0 gusting 4 15.6
2014-Sep-29 14:56 228 2 gusting 7 15.6
2014-Sep-29 14:46 318 2 gusting 7 15.6
2014-Sep-29 14:36 318 2 gusting 10 15.6
2014-Sep-29 14:26 298 4 gusting 7 16.1
2014-Sep-29 14:16 311 2 gusting 10 16.1
2014-Sep-29 14:06 320 0 gusting 6 16.7
2014-Sep-29 13:56 300 2 gusting 7 16.7
2014-Sep-29 13:46 143 0 gusting 6 16.7
2014-Sep-29 13:36 254 2 gusting 7 17.2
2014-Sep-29 13:26 240 1 gusting 6 16.7
2014-Sep-29 13:16 277 2 gusting 7 16.7
2014-Sep-29 13:06 306 3 gusting 6 17.2
2014-Sep-29 12:56 333 2 gusting 10 17.2
2014-Sep-29 12:26 352 2 gusting 7 17.8
2014-Sep-29 12:06 292 1 gusting 7 17.8
2014-Sep-29 11:56 328 0 gusting 8 17.8
2014-Sep-29 11:46 247 3 gusting 6 17.2
2014-Sep-29 11:36 187 4 gusting 11 17.8
2014-Sep-29 11:26 269 0 gusting 8 17.8
2014-Sep-29 11:16 104 1 gusting 11 17.2
2014-Sep-29 11:06 265 2 gusting 10 17.8
2014-Sep-29 10:46 256 2 gusting 8 17.2
2014-Sep-29 10:36 285 4 gusting 10 17.2
2014-Sep-29 10:26 259 1 gusting 8 16.7
2014-Sep-29 10:16 335 2 gusting 6 16.1
2014-Sep-29 09:56 219 1 gusting 10 16.7
2014-Sep-29 09:46 355 1 gusting 8 16.7
2014-Sep-29 09:26 325 3 gusting 10 16.1
2014-Sep-29 09:16 338 2 gusting 7 15.6
2014-Sep-29 08:56 241 2 gusting 6 15.6
2014-Sep-29 08:46 247 0 gusting 6 15.0
2014-Sep-29 08:36 326 2 gusting 7 15.0
2014-Sep-29 08:26 327 1 gusting 8 15.0
2014-Sep-29 08:16 252 3 gusting 8 15.0
2014-Sep-29 08:06 334 1 gusting 10 15.0